logo tempoitalia

Diretta Meteo Snyder-Winston, Stati Uniti (USA)lunedì 31 agosto ore 01:35

Mappa
Sereno 29 °C Sereno 24 Ore: T.min 25 T.max 37
Ponente Sud Km/h 18.5 Punto di rugiada: 12 °C Umidità: 35% Visibilità: 10 Km
Il sole sorge alle: 07:18 Il sole tramonta alle: 20:09
31 Agosto 2026 01:35 tempo osservato: Sereno Sereno 29 35 1016 vento: Nord S 18.5
31 Agosto 2026 01:15 tempo osservato: Sereno Sereno 29 35 1016 vento: Nord S/SE 18.5
31 Agosto 2026 00:55 tempo osservato: Sereno Sereno 29 35 1016 vento: Nord S/SE 20.3
31 Agosto 2026 00:35 tempo osservato: Sereno Sereno 30 33 1016 vento: Nord S/SE 18.5
31 Agosto 2026 00:15 tempo osservato: Sereno Sereno 30 33 1016 vento: Nord S/SE 22.2
30 Agosto 2026 23:55 tempo osservato: Sereno Sereno 31 31 1016 vento: Nord S/SE 25.9
30 Agosto 2026 23:35 tempo osservato: Sereno Sereno 31 31 1015 vento: Nord S/SE 22.2
30 Agosto 2026 23:15 tempo osservato: Sereno Sereno 31 31 1015 vento: Nord SE 24
30 Agosto 2026 22:55 tempo osservato: Sereno Sereno 31 31 1015 vento: Nord SE 14.8
30 Agosto 2026 22:35 tempo osservato: Sereno Sereno 31 29 1015 vento: Nord SE 16.7
30 Agosto 2026 22:15 tempo osservato: Sereno Sereno 31 29 1015 vento: Nord SE 13
30 Agosto 2026 21:55 tempo osservato: Sereno Sereno 31 29 1015 vento: Nord SE 11.1
30 Agosto 2026 21:35 tempo osservato: Sereno Sereno 32 27 1015 vento: Nord SE 9.3
30 Agosto 2026 21:15 tempo osservato: Sereno Sereno 32 27 1014 vento: Nord S/SE 11.1
30 Agosto 2026 20:55 tempo osservato: Sereno Sereno 33 26 1014 vento: Nord S/SE 11.1
30 Agosto 2026 20:35 tempo osservato: Sereno Sereno 34 24 1014 vento: Nord S/SE 9.3
30 Agosto 2026 20:15 tempo osservato: Sereno Sereno 35 23 1014 vento: Nord S/SE 11.1
30 Agosto 2026 19:55 tempo osservato: Sereno Sereno 35 23 1014 vento: Nord S/SE 14.8
30 Agosto 2026 19:35 tempo osservato: Sereno Sereno 36 22 1014 vento: Nord SE 13
30 Agosto 2026 19:15 tempo osservato: Sereno Sereno 36 22 1014 vento: Nord S 13
30 Agosto 2026 18:55 tempo osservato: Sereno Sereno 36 22 1014 vento: Nord SE 14.8
30 Agosto 2026 18:35 tempo osservato: Sereno Sereno 36 22 1013 vento: Nord E/SE 11.1
30 Agosto 2026 18:15 tempo osservato: Sereno Sereno 37 20 1013 vento: Nord SE 14.8
30 Agosto 2026 17:55 tempo osservato: Sereno Sereno 37 20 1013 vento: Nord SE 22.2
30 Agosto 2026 17:35 tempo osservato: Sereno Sereno 37 22 1014 vento: Nord E/SE 18.5
30 Agosto 2026 17:15 tempo osservato: Nuvoloso Nuvoloso 37 20 1014 vento: Nord S/SE 22.2
30 Agosto 2026 16:55 tempo osservato: Nuvoloso Nuvoloso 37 20 1014 vento: Nord S/SO 11.1
30 Agosto 2026 16:35 tempo osservato: Sereno Sereno 36 22 1014 vento: Nord S/SE 11.1
30 Agosto 2026 16:15 tempo osservato: Sereno Sereno 37 20 1014 vento: Nord S/SO 7.4
30 Agosto 2026 15:55 tempo osservato: Sereno Sereno 37 22 1015 vento: Nord S/SE 20.3
30 Agosto 2026 15:35 tempo osservato: Nuvoloso Nuvoloso 36 22 1015 vento: Nord SE 16.7
30 Agosto 2026 15:15 tempo osservato: Nuvoloso Nuvoloso 36 22 1015 vento: Nord S/SE 18.5
30 Agosto 2026 14:55 tempo osservato: Sereno Sereno 36 23 1016 vento: Nord S/SE 20.3
30 Agosto 2026 14:35 tempo osservato: Sereno Sereno 36 23 1016 vento: Nord S 20.3
30 Agosto 2026 14:15 tempo osservato: Sereno Sereno 35 26 1016 vento: Nord S/SE 20.3
30 Agosto 2026 13:55 tempo osservato: Nuvoloso Nuvoloso 35 24 1016 vento: Nord S 14.8
30 Agosto 2026 13:35 tempo osservato: Nuvoloso Nuvoloso 35 26 1017 vento: Nord N 5.5
30 Agosto 2026 13:15 tempo osservato: Nuvoloso Nuvoloso 34 30 1017 vento: Nord S/SE 16.7
30 Agosto 2026 12:55 tempo osservato: Sereno Sereno 34 32 1017 vento: Nord S/SO 9.3
30 Agosto 2026 12:35 tempo osservato: Sereno Sereno 33 36 1018 vento: Nord S 13
30 Agosto 2026 12:15 tempo osservato: Sereno Sereno 33 36 1018 vento: Nord S 11.1
30 Agosto 2026 11:55 tempo osservato: Sereno Sereno 32 40 1018 vento: Nord S/SE 14.8
30 Agosto 2026 11:35 tempo osservato: Sereno Sereno 32 40 1018 vento: Nord S/SO 14.8
30 Agosto 2026 11:15 tempo osservato: Sereno Sereno 31 45 1018 vento: Nord S 16.7
30 Agosto 2026 10:55 tempo osservato: Sereno Sereno 30 48 1018 vento: Nord S 16.7
30 Agosto 2026 10:35 tempo osservato: Sereno Sereno 29 51 1018 vento: Nord S/SO 20.3
30 Agosto 2026 10:15 tempo osservato: Sereno Sereno 29 51 1018 vento: Nord S 22.2
30 Agosto 2026 09:55 tempo osservato: Sereno Sereno 28 54 1018 vento: Nord S/SO 20.3
30 Agosto 2026 09:35 tempo osservato: Sereno Sereno 27 57 1018 vento: Nord S 20.3
30 Agosto 2026 09:15 tempo osservato: Sereno Sereno 27 57 1019 vento: Nord S/SO 18.5
30 Agosto 2026 08:55 tempo osservato: Sereno Sereno 26 57 1019 vento: Nord S 18.5
30 Agosto 2026 08:35 tempo osservato: Sereno Sereno 26 57 1018 vento: Nord S 13
30 Agosto 2026 08:15 tempo osservato: Sereno Sereno 25 61 1018 vento: Nord S 13
30 Agosto 2026 07:55 tempo osservato: Sereno Sereno 25 57 1018 vento: Nord S 9.3
30 Agosto 2026 07:35 tempo osservato: Sereno Sereno 25 57 1018 vento: Nord S 11.1
30 Agosto 2026 07:15 tempo osservato: Sereno Sereno 25 57 1017 vento: Nord S 11.1
30 Agosto 2026 06:55 tempo osservato: Sereno Sereno 25 57 1017 vento: Nord S 11.1
30 Agosto 2026 06:35 tempo osservato: Sereno Sereno 26 54 1017 vento: Nord S 14.8
30 Agosto 2026 06:15 tempo osservato: Sereno Sereno 26 54 1017 vento: Nord S 11.1
30 Agosto 2026 05:55 tempo osservato: Sereno Sereno 26 54 1017 vento: Nord S 11.1
30 Agosto 2026 05:35 tempo osservato: Sereno Sereno 26 50 1017 vento: Nord S 13
30 Agosto 2026 05:15 tempo osservato: Sereno Sereno 26 50 1017 vento: Nord S 13
30 Agosto 2026 04:55 tempo osservato: Sereno Sereno 26 50 1017 vento: Nord S 11.1
30 Agosto 2026 04:35 tempo osservato: Sereno Sereno 27 47 1016 vento: Nord S 11.1
30 Agosto 2026 04:15 tempo osservato: Sereno Sereno 27 47 1017 vento: Nord S 11.1
30 Agosto 2026 03:55 tempo osservato: Sereno Sereno 27 47 1016 vento: Nord S 11.1
30 Agosto 2026 03:35 tempo osservato: Sereno Sereno 28 45 1016 vento: Nord S 14.8
30 Agosto 2026 03:15 tempo osservato: Sereno Sereno 28 45 1017 vento: Nord S 14.8
30 Agosto 2026 02:55 tempo osservato: Sereno Sereno 28 45 1017 vento: Nord S 16.7
30 Agosto 2026 02:35 tempo osservato: Sereno Sereno 28 45 1017 vento: Nord S 16.7
30 Agosto 2026 02:15 tempo osservato: Sereno Sereno 29 42 1017 vento: Nord S 18.5
30 Agosto 2026 01:55 tempo osservato: Sereno Sereno 29 39 1017 vento: Nord S 14.8
30 Agosto 2026 01:35 tempo osservato: Sereno Sereno 29 39 1017 vento: Nord S/SE 16.7